Wind_Speed
60 58 56 47 39 34 35 35 32 31 30 26 23 20 21 18 17 17 18 19 20 22 25 26 25 24 23 23 22 23 26 28 31 33 34 34 34 33 32 31 29 29 30 32
61 58 48 41 38 37 37 34 30 30 29 25 22 20 21 20 18 18 18 19 21 22 22 22 22 21 21 22 23 26 29 32 35 36 34 33 31 29 29 30 31 33 34 36
60 53 46 43 40 36 34 30 28 28 27 24 23 21 22 21 20 19 18 19 19 18 19 21 23 22 22 23 26 29 32 35 35 33 30 28 28 29 31 33 35 37 39 41
57 50 45 42 39 34 29 27 28 28 27 24 24 21 20 21 21 21 20 18 17 17 19 22 24 24 24 26 29 32 34 33 30 29 29 30 31 32 34 37 39 41 44 46
58 51 46 42 35 29 25 28 29 28 27 24 22 21 17 21 23 23 21 19 17 18 20 23 25 27 28 30 32 33 33 31 30 30 32 33 35 37 38 40 42 44 45 46
55 50 45 38 33 30 29 30 29 29 28 25 20 22 17 21 23 23 21 21 20 21 22 24 27 30 32 32 33 33 32 31 32 34 35 37 38 40 41 42 43 45 48 50
55 50 44 39 37 35 34 32 30 29 27 22 21 22 17 21 21 21 21 22 23 24 25 27 29 32 34 34 34 33 33 35 36 37 38 39 40 41 42 43 45 49 52 56
55 51 46 41 38 35 33 31 28 26 25 23 24 23 20 22 23 23 23 24 26 26 27 29 30 32 34 35 35 35 37 38 39 40 40 40 40 42 44 48 51 55 59 63
51 47 43 40 36 34 32 31 28 28 26 24 24 22 21 23 24 25 25 27 29 28 27 28 30 32 34 36 37 39 39 40 40 40 40 41 43 47 51 55 59 63 68 71
45 43 41 38 36 36 35 32 31 29 27 26 24 23 22 24 26 27 28 30 30 27 26 27 31 34 36 37 39 39 39 39 39 40 41 44 47 51 55 59 63 68 71 74
41 40 39 39 38 37 36 34 31 29 28 26 25 22 21 22 24 26 27 27 26 25 26 29 32 34 37 37 37 36 36 38 39 41 44 47 51 55 59 63 68 71 75 78
37 37 38 39 39 38 35 32 31 30 28 26 25 23 20 21 23 24 24 24 25 26 28 30 32 34 35 35 35 36 37 39 42 45 49 53 56 60 64 68 72 75 78 80
35 36 37 38 38 36 33 30 29 28 27 26 24 21 21 22 23 23 23 24 26 28 29 31 33 34 34 35 36 38 41 44 48 52 55 59 62 66 69 72 74 77 79 82
33 35 35 34 31 28 27 26 26 27 26 23 20 19 22 24 23 22 23 25 27 28 30 32 33 34 35 36 39 43 47 51 55 58 61 64 67 70 72 74 76 79 83 87
32 34 33 33 32 30 29 27 27 27 25 24 22 24 25 23 22 23 25 26 28 30 32 33 34 35 38 41 45 49 53 56 59 62 64 67 69 71 74 77 80 84 89 93
30 32 32 31 30 30 30 30 29 27 26 25 24 25 26 24 24 25 27 28 30 32 33 34 36 40 43 47 50 53 56 59 61 63 66 68 71 74 77 81 85 90 94 97
29 31 31 29 29 30 30 28 27 26 25 26 26 25 25 25 26 28 29 30 32 33 35 37 40 44 47 50 52 55 58 60 62 65 68 71 74 78 81 86 90 94 97 96
29 29 28 28 28 29 27 27 27 26 26 26 25 25 24 24 27 29 30 32 34 36 38 41 44 47 49 52 55 58 60 62 65 68 71 74 77 81 86 90 94 96 94 90
29 27 26 26 27 27 26 27 26 27 26 27 26 25 25 27 29 30 32 34 36 39 42 45 47 50 53 55 58 60 63 65 68 71 74 77 81 85 89 93 94 92 87 82
28 28 28 29 29 30 28 28 28 29 28 26 25 25 27 29 31 32 34 37 39 42 45 48 51 54 56 59 61 64 66 68 70 73 76 80 84 88 91 92 90 85 80 77
23 25 27 29 31 32 29 28 27 28 26 24 26 28 29 31 32 34 37 40 42 45 49 52 55 57 60 62 64 66 67 68 71 75 79 84 87 90 91 88 83 79 76 77
20 21 23 23 25 26 24 24 25 26 25 26 27 29 31 33 35 38 41 44 47 50 53 56 59 61 63 64 64 65 67 70 74 79 83 86 89 89 87 83 78 75 75 78
19 20 19 20 21 21 23 24 25 25 26 27 29 31 34 37 39 43 46 49 52 56 59 61 63 64 63 63 64 66 69 73 77 82 85 87 87 85 81 78 75 74 76 80
17 18 19 20 20 21 23 24 26 27 28 30 33 35 38 41 44 47 51 54 57 60 62 64 63 62 61 62 65 67 71 76 80 84 86 87 84 80 76 74 74 75 78 81
19 19 20 21 23 25 26 28 29 31 33 35 38 40 43 46 50 53 56 58 61 63 64 62 59 59 60 63 67 70 75 79 83 86 87 84 80 77 73 72 73 75 77 83
23 24 24 25 26 28 29 30 31 33 35 38 41 44 48 52 55 57 59 62 63 63 59 57 58 59 62 65 70 74 79 83 85 86 84 80 77 73 72 72 71 73 76 81
Wind_Direction
204 209 212 213 215 216 214 214 214 218 225 224 223 228 236 236 233 237 242 249 258 266 273 273 269 266 267 267 268 272 278 283 287 291 292 293 293 294 294 294 294 295 295 295
204 209 209 207 210 213 213 215 216 222 226 223 220 224 233 230 228 234 246 259 266 269 270 269 264 261 260 263 268 274 280 285 288 290 290 291 291 290 291 292 293 294 294 294
205 205 204 205 207 209 210 213 219 225 227 224 221 219 227 231 233 241 255 266 267 264 265 267 266 262 262 268 273 278 283 287 289 288 287 287 288 289 290 291 292 293 294 295
204 203 203 205 207 207 208 213 221 226 228 226 226 219 226 231 237 245 255 263 263 262 263 265 266 265 267 272 278 283 287 289 288 286 285 286 288 289 290 291 293 294 295 297
201 201 203 206 206 207 209 218 224 228 229 226 227 229 216 235 238 243 250 256 257 258 262 265 268 270 274 278 284 289 290 289 287 285 286 287 289 289 291 293 296 298 300 302
202 203 204 205 205 206 211 221 225 228 231 229 233 240 224 238 240 246 250 253 256 259 264 270 273 276 280 284 288 289 288 286 285 286 287 289 291 293 296 299 301 303 304 305
200 202 203 203 204 206 212 218 224 230 235 237 238 244 239 244 244 247 251 257 261 265 269 272 274 279 283 286 288 288 286 286 286 287 289 292 295 298 301 302 303 304 305 305
201 202 203 205 208 212 218 219 226 237 242 243 241 244 246 248 250 252 256 261 263 267 271 274 278 281 283 285 285 285 285 286 288 290 293 296 300 302 303 304 305 305 306 306
204 205 207 209 212 217 219 222 229 237 242 245 245 246 249 251 252 255 257 258 262 266 271 276 279 279 281 282 283 284 286 289 292 295 300 302 303 304 305 306 307 308 308 307
204 206 208 209 212 214 216 223 229 238 245 248 247 247 249 249 251 253 255 258 263 267 271 274 275 277 280 281 283 286 290 294 297 300 301 302 304 305 307 308 309 309 308 307
204 207 209 211 213 218 222 227 233 239 244 247 251 251 250 247 248 251 255 260 264 267 270 272 277 279 280 282 286 290 293 296 298 300 301 303 305 306 307 308 308 308 308 308
205 208 212 215 217 220 224 228 231 236 241 247 251 247 245 241 244 249 254 260 265 268 273 277 277 277 279 283 288 292 295 298 300 301 303 304 306 308 308 309 309 309 308 307
203 206 208 210 214 217 219 222 227 233 239 244 247 242 237 236 240 247 255 262 269 274 277 276 275 277 282 288 293 297 300 302 303 304 306 307 308 309 309 309 308 307 306 306
199 203 206 209 211 215 218 222 230 236 240 242 239 237 237 240 245 252 259 267 273 276 276 276 278 283 290 295 299 301 303 304 306 308 309 309 309 309 309 308 307 307 307 307
199 200 202 205 207 211 216 222 229 233 234 234 231 238 243 248 255 261 267 270 273 275 277 281 287 293 297 300 302 304 305 307 308 308 309 309 309 308 308 309 309 309 309 310
199 202 204 207 209 214 218 221 225 230 232 234 238 246 254 259 263 268 270 272 275 278 284 290 295 298 300 302 304 305 306 306 307 308 308 308 308 310 311 311 311 312 312 313
205 205 206 209 215 220 222 223 228 232 236 241 246 252 260 267 271 272 273 275 278 284 290 294 297 299 300 301 303 304 305 306 307 308 309 310 312 312 313 313 313 314 315 316
202 204 208 214 220 225 224 227 232 236 241 246 251 255 260 264 266 268 272 277 282 287 292 295 297 298 300 302 304 305 306 307 308 310 311 313 313 313 313 315 316 316 317 317
206 208 214 219 226 230 229 232 236 242 247 249 252 255 260 263 267 271 275 279 284 289 293 296 298 301 303 304 304 305 307 308 310 311 312 313 313 314 316 317 317 317 318 317
211 214 220 226 233 239 240 242 246 249 250 251 253 255 259 263 268 273 278 283 288 292 296 299 301 303 303 303 304 305 307 308 310 311 312 313 315 317 318 318 318 318 317 316
214 222 228 234 239 244 245 245 247 250 253 252 254 256 260 263 269 275 281 286 291 295 298 300 301 301 302 303 304 305 306 309 310 312 314 316 317 318 319 319 318 316 316 318
212 218 224 229 234 239 245 247 249 251 252 251 253 257 262 267 273 279 285 290 295 297 298 299 300 301 302 302 303 304 307 310 312 314 317 319 320 320 319 318 316 315 317 320
228 233 237 240 244 246 246 248 250 252 253 255 258 262 268 273 279 285 290 294 296 297 299 300 301 301 301 302 304 308 311 313 315 317 319 320 320 320 319 317 316 317 319 321
238 241 244 244 244 243 244 248 252 256 259 262 266 271 276 280 285 289 292 295 298 299 300 301 300 301 302 305 308 310 313 315 317 319 320 320 320 319 317 316 316 318 320 322
254 255 253 251 248 248 249 251 255 259 264 268 272 277 281 285 288 291 295 297 299 299 300 300 301 302 305 307 310 313 315 317 319 320 320 320 319 318 317 317 317 318 321 324
260 258 258 257 256 255 255 257 260 265 270 275 279 283 285 288 291 294 296 298 298 298 299 300 301 304 307 309 312 314 316 318 319 320 320 319 318 317 316 316 317 319 321 324
Height
5699 5708 5718 5733 5745 5754 5759 5764 5769 5772 5775 5780 5784 5787 5790 5792 5795 5798 5799 5800 5801 5802 5802 5801 5801 5801 5801 5801 5801 5800 5800 5798 5796 5794 5791 5788 5786 5783 5781 5779 5776 5774 5771 5769
5695 5704 5721 5733 5740 5746 5752 5759 5765 5768 5771 5776 5780 5784 5786 5789 5791 5793 5794 5795 5796 5796 5796 5796 5796 5796 5796 5796 5796 5795 5794 5793 5790 5787 5784 5781 5779 5777 5774 5772 5770 5767 5764 5761
5692 5707 5718 5726 5733 5741 5749 5757 5762 5765 5767 5772 5776 5780 5783 5785 5787 5789 5790 5790 5790 5790 5791 5792 5792 5792 5792 5792 5791 5790 5788 5787 5784 5781 5778 5776 5773 5771 5768 5766 5763 5760 5756 5753
5691 5703 5713 5722 5730 5738 5748 5753 5756 5759 5763 5768 5772 5775 5779 5781 5782 5784 5785 5785 5784 5784 5785 5787 5788 5788 5787 5786 5785 5783 5781 5779 5777 5775 5773 5770 5767 5764 5762 5759 5756 5752 5749 5745
5687 5699 5709 5718 5729 5738 5745 5747 5751 5755 5759 5764 5767 5770 5777 5776 5777 5778 5780 5780 5779 5780 5781 5782 5784 5784 5782 5780 5778 5776 5774 5772 5771 5769 5766 5764 5761 5758 5755 5751 5748 5744 5740 5736
5687 5697 5707 5718 5727 5734 5738 5742 5746 5750 5754 5761 5765 5766 5772 5771 5773 5775 5776 5775 5774 5775 5776 5777 5778 5777 5775 5773 5771 5769 5768 5766 5763 5761 5759 5756 5753 5750 5746 5743 5739 5735 5730 5725
5681 5693 5704 5713 5720 5726 5732 5737 5743 5746 5751 5758 5761 5761 5767 5767 5768 5770 5770 5770 5769 5770 5771 5771 5771 5770 5768 5766 5764 5763 5761 5758 5756 5753 5751 5748 5745 5741 5738 5734 5730 5725 5720 5714
5679 5689 5700 5709 5716 5723 5729 5735 5741 5745 5748 5753 5755 5758 5763 5762 5763 5764 5764 5764 5764 5764 5765 5765 5765 5764 5761 5759 5758 5756 5753 5751 5749 5746 5743 5740 5736 5732 5728 5724 5719 5713 5707 5701
5680 5691 5700 5708 5715 5720 5725 5730 5736 5739 5742 5746 5750 5755 5758 5757 5757 5757 5758 5757 5757 5759 5759 5760 5759 5757 5754 5753 5751 5749 5747 5744 5741 5738 5735 5731 5726 5722 5717 5711 5706 5699 5693 5686
5679 5689 5697 5705 5711 5716 5722 5726 5729 5733 5737 5741 5746 5749 5752 5752 5751 5751 5751 5751 5752 5754 5754 5754 5752 5750 5748 5745 5743 5742 5740 5737 5733 5730 5726 5721 5715 5710 5705 5699 5692 5685 5678 5670
5677 5686 5694 5700 5706 5711 5718 5722 5725 5730 5733 5737 5740 5746 5745 5745 5745 5745 5746 5746 5748 5748 5748 5747 5746 5744 5741 5738 5736 5735 5732 5729 5725 5720 5715 5710 5704 5699 5692 5685 5678 5670 5662 5653
5675 5682 5689 5696 5702 5707 5712 5717 5721 5725 5729 5732 5735 5741 5739 5739 5739 5739 5741 5742 5743 5743 5742 5741 5739 5736 5734 5732 5730 5727 5723 5719 5715 5710 5704 5699 5693 5686 5679 5670 5662 5653 5644 5635
5672 5679 5684 5689 5698 5702 5707 5712 5717 5721 5724 5726 5729 5736 5733 5733 5733 5735 5737 5737 5737 5736 5736 5734 5731 5729 5726 5724 5722 5718 5714 5709 5704 5699 5693 5686 5679 5672 5663 5655 5646 5637 5628 5618
5670 5676 5682 5688 5695 5702 5706 5711 5714 5716 5719 5722 5725 5727 5727 5727 5729 5731 5732 5732 5731 5730 5728 5726 5723 5721 5719 5716 5712 5708 5703 5698 5692 5686 5680 5673 5664 5656 5648 5639 5630 5620 5610 5598
5668 5673 5679 5685 5691 5697 5701 5705 5708 5711 5714 5716 5719 5720 5721 5723 5725 5726 5726 5726 5725 5723 5721 5719 5717 5714 5711 5707 5703 5698 5692 5686 5680 5673 5666 5658 5649 5641 5632 5622 5612 5601 5589 5575
5667 5673 5678 5683 5688 5692 5696 5700 5703 5706 5708 5711 5713 5715 5716 5718 5719 5719 5719 5718 5717 5715 5714 5712 5709 5706 5702 5697 5693 5687 5680 5674 5666 5659 5651 5643 5635 5625 5615 5604 5593 5581 5567 5551
5667 5672 5677 5681 5685 5688 5692 5696 5699 5702 5704 5706 5708 5711 5711 5712 5712 5711 5711 5710 5709 5708 5707 5704 5701 5696 5692 5687 5681 5674 5667 5660 5652 5645 5636 5628 5618 5607 5596 5584 5571 5558 5544 5529
5665 5669 5674 5678 5682 5685 5692 5693 5695 5698 5700 5702 5704 5705 5705 5705 5704 5704 5704 5703 5702 5701 5698 5694 5690 5686 5680 5674 5668 5661 5654 5646 5638 5629 5620 5611 5601 5590 5577 5563 5548 5535 5521 5507
5663 5668 5672 5675 5678 5682 5687 5689 5692 5694 5696 5697 5698 5699 5698 5698 5697 5697 5697 5696 5694 5691 5688 5684 5679 5674 5668 5661 5654 5647 5640 5631 5622 5613 5604 5594 5583 5571 5556 5541 5527 5514 5501 5488
5662 5666 5670 5673 5675 5678 5684 5686 5686 5688 5689 5691 5692 5692 5692 5692 5691 5690 5689 5687 5684 5681 5678 5673 5667 5661 5655 5648 5641 5634 5626 5617 5607 5598 5588 5576 5564 5550 5535 5521 5507 5494 5482 5470
5661 5664 5667 5669 5671 5674 5678 5679 5680 5682 5685 5685 5685 5685 5685 5685 5684 5683 5681 5679 5675 5671 5666 5661 5655 5649 5642 5635 5628 5620 5612 5603 5593 5582 5570 5557 5543 5529 5516 5502 5489 5476 5465 5454
5658 5660 5662 5665 5666 5670 5672 5673 5674 5676 5676 5677 5677 5678 5678 5677 5676 5675 5672 5669 5664 5659 5654 5649 5642 5636 5629 5621 5614 5606 5598 5588 5577 5565 5552 5538 5524 5510 5497 5484 5472 5460 5447 5435
5654 5657 5659 5661 5664 5665 5666 5667 5668 5669 5670 5670 5671 5671 5670 5669 5667 5664 5661 5657 5652 5646 5641 5634 5628 5621 5613 5606 5598 5590 5581 5570 5558 5546 5532 5520 5507 5493 5479 5467 5455 5444 5431 5418
5651 5653 5654 5656 5657 5658 5660 5661 5662 5662 5663 5663 5663 5663 5661 5659 5656 5653 5649 5644 5638 5632 5626 5619 5612 5605 5598 5591 5583 5574 5565 5553 5541 5529 5516 5504 5491 5479 5465 5452 5440 5428 5416 5403
5646 5647 5648 5650 5651 5652 5654 5654 5655 5655 5655 5655 5654 5652 5650 5647 5644 5640 5635 5629 5623 5617 5611 5604 5596 5590 5583 5575 5566 5557 5547 5536 5524 5512 5500 5487 5474 5462 5451 5440 5427 5415 5404 5387
5639 5640 5642 5643 5645 5645 5646 5646 5647 5646 5645 5644 5643 5640 5638 5634 5630 5626 5621 5615 5609 5602 5595 5589 5582 5575 5567 5558 5549 5539 5529 5519 5508 5497 5484 5470 5458 5447 5436 5427 5419 5406 5392 5380